Avoca, PA

3:19 AM EDT on September 17, 2019 (GMT -0400)
Wilkes-Barre-Scranton International

Weather History for KAVP - July, 2019

Change the Weather History Date:

Tuesday, July 30, 2019

  Actual Average Record
Temperature  
Mean Temperature 80 °F 71 °F  
Max Temperature 92 °F 82 °F 94 °F (1933)
Min Temperature 67 °F 61 °F 47 °F (1997)
Degree Days  
Heating Degree Days 0 0  
Month to date heating degree days 0 0  
Since 1 June heating degree days 32 54  
Since 1 July heating degree days 0 0  
Cooling Degree Days 15 6  
Month to date cooling degree days 338 204  
Year to date cooling degree days 503 358  
Since 1 June cooling degree days 453 321  
Growing Degree Days 30 (Base 50)    
Moisture  
Dew Point 67 °F    
Average Humidity 69    
Maximum Humidity 97    
Minimum Humidity 41    
Precipitation  
Precipitation 0.14 in 0.14 in 2.82 in (2000)
Month to date precipitation 7.06 3.66  
Year to date precipitation 31.76 21.49  
Sea Level Pressure  
Sea Level Pressure 29.98 in    
Wind  
Wind Speed 5 mph (South)    
Max Wind Speed 29 mph    
Max Gust Speed 37 mph    
Visibility 8 miles    
Events Rain , Thunderstorm    
T = Trace of Precipitation, MM = Missing Value Source: NWS Daily Summary

Daily Weather History Graph

Daily Weather History Graph

Search for Another Location

Airport or City:

Astronomy

Jul. 30, 2019 Rise Set
Actual Time 5:55 AM EDT 8:22 PM EDT
Civil Twilight 5:24 AM EDT 8:53 PM EDT
Nautical Twilight 4:45 AM EDT 9:32 PM EDT
Astronomical Twilight 4:02 AM EDT 10:15 PM EDT
Moon 4:00 AM EDT (7/30) 7:25 PM EDT (7/30)
Length of Visible Light 15h 28m
Length of Day
14h 26m
Waning Crescent, 3% of the Moon is Illuminated
Jul 30
Waning Crescent
Jul 31
New
Aug 7
First Quarter
Aug 15
Full
Aug 23
Last Quarter

Hourly Weather History & Observations

Time (EDT) Temp. Heat Index Dew Point Humidity Pressure Visibility Wind Dir Wind Speed Gust Speed Precip Events Conditions
12:54 AM 72.0 °F - 66.9 °F 84% 29.98 in 9.0 mi SSE 3.5 mph - N/A   Clear
1:54 AM 72.0 °F - 66.9 °F 84% 29.96 in 8.0 mi Calm Calm - N/A   Clear
2:54 AM 72.0 °F - 66.0 °F 81% 29.96 in 9.0 mi Calm Calm - N/A   Clear
3:54 AM 71.1 °F - 66.0 °F 84% 29.96 in 8.0 mi East 3.5 mph - N/A   Clear
4:54 AM 70.0 °F - 66.0 °F 87% 29.97 in 8.0 mi ESE 3.5 mph - N/A   Clear
5:54 AM 70.0 °F - 66.0 °F 87% 29.97 in 7.0 mi ESE 3.5 mph - N/A   Clear
6:54 AM 72.0 °F - 66.9 °F 84% 29.98 in 6.0 mi ESE 3.5 mph - N/A   Haze
7:54 AM 75.0 °F - 68.0 °F 79% 29.99 in 7.0 mi ENE 3.5 mph - N/A   Clear
8:54 AM 80.1 °F 82.9 °F 69.1 °F 69% 30.00 in 7.0 mi West 3.5 mph - N/A   Clear
9:42 AM 82.0 °F 85.9 °F 70.0 °F 67% 30.03 in 7.0 mi Variable 5.8 mph - N/A   Partly Cloudy
9:54 AM 82.0 °F 85.5 °F 69.1 °F 65% 30.00 in 7.0 mi Variable 5.8 mph - N/A   Partly Cloudy
10:54 AM 84.9 °F 88.2 °F 68.0 °F 57% 30.00 in 9.0 mi SW 8.1 mph - N/A   Clear
11:54 AM 87.1 °F 90.6 °F 68.0 °F 53% 29.99 in 9.0 mi SW 8.1 mph - N/A   Clear
12:54 PM 89.1 °F 92.1 °F 66.9 °F 48% 29.99 in 10.0 mi WSW 11.5 mph - N/A   Clear
1:54 PM 90.0 °F 92.4 °F 66.0 °F 45% 29.96 in 10.0 mi SW 12.7 mph 18.4 mph N/A   Clear
2:54 PM 91.0 °F 93.8 °F 66.0 °F 44% 29.94 in 10.0 mi WSW 8.1 mph - N/A   Clear
3:18 PM 90.0 °F 92.4 °F 66.0 °F 45% 29.97 in 10.0 mi SW 8.1 mph - N/A   Scattered Clouds
3:54 PM 91.0 °F 93.0 °F 64.9 °F 42% 29.92 in 10.0 mi SW 9.2 mph - N/A   Clear
4:41 PM 88.0 °F 90.3 °F 66.0 °F 48% 29.95 in 10.0 mi SSW 6.9 mph - N/A Thunderstorm Scattered Clouds
4:54 PM 87.1 °F 89.2 °F 66.0 °F 49% 29.94 in 7.0 mi SW 12.7 mph 19.6 mph 0.00 in Rain , Thunderstorm Light Thunderstorms and Rain
4:58 PM 81.0 °F 84.1 °F 69.1 °F 67% 29.97 in 1.8 mi WSW 28.8 mph 36.8 mph 0.00 in Rain , Thunderstorm Heavy Thunderstorms and Rain
5:09 PM 75.0 °F - 64.0 °F 69% 29.96 in 2.0 mi WNW 13.8 mph 35.7 mph 0.14 in Rain , Thunderstorm Light Thunderstorms and Rain
5:17 PM 75.0 °F - 66.9 °F 76% 29.96 in 10.0 mi ESE 4.6 mph 19.6 mph 0.14 in Thunderstorm Thunderstorm
5:54 PM - - - N/A% 30.05 in - North - - 0.14 in Thunderstorm Thunderstorm
6:27 PM - - - N/A% 30.01 in - North - - N/A Thunderstorm Unknown
6:43 PM - - - N/A% 30.01 in - North - - N/A   Unknown
6:54 PM 71.1 °F - 68.0 °F 90% 29.97 in - North - - N/A   Unknown
7:54 PM 70.0 °F - 68.0 °F 93% 29.98 in 8.0 mi ESE 4.6 mph - N/A   Clear
8:54 PM 70.0 °F - 68.0 °F 93% 30.00 in 9.0 mi ESE 3.5 mph - N/A   Clear
9:54 PM 69.1 °F - 66.9 °F 93% 30.02 in 9.0 mi Calm Calm - N/A   Clear
10:54 PM 68.0 °F - 66.0 °F 93% 30.01 in 7.0 mi Calm Calm - N/A   Clear
11:54 PM 68.0 °F - 64.9 °F 90% 30.01 in 9.0 mi ESE 5.8 mph - N/A   Clear